Back to catalog

STARLINK-35026

AliveCommunicationsVLEO
NORAD 65514·PAYLOAD·🇺🇸 United States

Launched Sep 5, 2025 from Cape Canaveral Space Force Station

Loading…

Next Passes (next 24 hours)

TLE

FreshSource: CelesTrak SupGP

Epoch: Sep 15, 2026, 02:51 UTC

1 65514C 25198Y   26258.11923611  .00017427  00000+0  51497-3 0  2580
2 65514  53.1562 108.5636 0001241  87.3610  89.2311 15.34376042    17

Track STARLINK-35026 in real time with AllMySat

Download on the App Store